Weather History for Canadian, TX

Change the Weather History Date:

Thursday, November 8, 2012

  Actual Average (KPPA) Record (KPPA)
Temperature  
Mean Temperature 66 °F -  
Max Temperature 86 °F 62 °F 81 °F (1980)
Min Temperature 46 °F 37 °F 21 °F (1991)
Cooling Degree Days 1    
Growing Degree Days 16 (Base 50)    
Moisture  
Dew Point 30 °F    
Average Humidity 35    
Maximum Humidity 76    
Minimum Humidity 6    
Precipitation  
Precipitation 0.00 in - - ()
Sea Level Pressure  
Sea Level Pressure 29.85 in    
Wind  
Wind Speed 11 mph (SW)    
Max Wind Speed 21 mph    
Max Gust Speed 29 mph    
Visibility 10 miles    
Events      
Averages and records for this station are not official NWS values.
T = Trace of Precipitation, MM = Missing Value Source: NWS Daily Summary

Daily Weather History Graph

Daily Weather History Graph

Search for Another Location

Airport:

Trip Planner

Search our weather history database for the weather conditions in past years. The results will help you decide how hot, cold, wet, or windy it might be!

Date:

Astronomy

Nov. 08, 2012 Rise Set
Actual Time 7:11 AM CST 5:38 PM CST
Civil Twilight 6:44 AM CST 6:05 PM CST
Nautical Twilight 6:13 AM CST 6:36 PM CST
Astronomical Twilight 5:43 AM CST 7:06 PM CST
Moon 1:19 AM CST (11/8) 2:11 PM CST (11/8)
Length of Visible Light 11h 21m
Length of Day
10h 27m
Waning Crescent, 32% of the Moon is Illuminated
Nov 8
Waning Crescent
Nov 13
New
Nov 20
First Quarter
Nov 28
Full
Dec 6
Last Quarter

Hourly Weather History & Observations

Time (CST) Temp. Windchill Dew Point Humidity Pressure Visibility Wind Dir Wind Speed Gust Speed Precip Events Conditions
12:15 AM 59.0 °F - 35.6 °F 42% 29.93 in 10.0 mi South 15.0 mph 20.7 mph N/A   Clear
12:35 AM 59.0 °F - 35.6 °F 42% 29.92 in 10.0 mi South 11.5 mph 19.6 mph N/A   Clear
12:55 AM 59.0 °F - 37.4 °F 45% 29.91 in 10.0 mi South 17.3 mph 23.0 mph N/A   Clear
1:15 AM 59.0 °F - 37.4 °F 45% 29.90 in 10.0 mi South 17.3 mph 25.3 mph N/A   Clear
1:35 AM 59.0 °F - 37.4 °F 45% 29.89 in 10.0 mi South 20.7 mph 27.6 mph N/A   Clear
1:55 AM 57.2 °F - 37.4 °F 48% 29.89 in 10.0 mi South 19.6 mph 28.8 mph N/A   Clear
2:15 AM 55.4 °F - 37.4 °F 51% 29.89 in 10.0 mi South 18.4 mph 26.5 mph N/A   Clear
2:35 AM 55.4 °F - 37.4 °F 51% 29.89 in 10.0 mi South 16.1 mph - N/A   Clear
2:55 AM 55.4 °F - 37.4 °F 51% 29.88 in 10.0 mi South 20.7 mph 27.6 mph N/A   Clear
3:15 AM 53.6 °F - 37.4 °F 54% 29.88 in 10.0 mi South 19.6 mph 25.3 mph N/A   Clear
3:35 AM 53.6 °F - 37.4 °F 54% 29.88 in 10.0 mi SSW 16.1 mph 25.3 mph N/A   Clear
3:55 AM 53.6 °F - 37.4 °F 54% 29.88 in 10.0 mi SW 11.5 mph 19.6 mph N/A   Clear
4:15 AM 51.8 °F - 37.4 °F 58% 29.88 in 10.0 mi SW 9.2 mph - N/A   Clear
4:35 AM 51.8 °F - 37.4 °F 58% 29.88 in 10.0 mi SW 9.2 mph - N/A   Clear
4:55 AM 51.8 °F - 37.4 °F 58% 29.88 in 10.0 mi SW 6.9 mph - N/A   Clear
5:15 AM 50.0 °F - 37.4 °F 62% 29.88 in 10.0 mi SW 6.9 mph - N/A   Clear
5:35 AM 50.0 °F - 37.4 °F 62% 29.88 in 10.0 mi SW 6.9 mph - N/A   Clear
5:55 AM 50.0 °F - 39.2 °F 66% 29.87 in 10.0 mi SSW 11.5 mph - N/A   Clear
6:15 AM 50.0 °F - 39.2 °F 66% 29.87 in 10.0 mi SW 5.8 mph - N/A   Clear
6:35 AM 50.0 °F - 41.0 °F 71% 29.88 in 10.0 mi SW 4.6 mph - N/A   Clear
6:55 AM 48.2 °F - 39.2 °F 71% 29.88 in 10.0 mi SW 6.9 mph - N/A   Clear
7:15 AM 46.4 °F 43.5 °F 39.2 °F 76% 29.88 in 10.0 mi SSW 5.8 mph - N/A   Clear
7:35 AM 46.4 °F 45.2 °F 39.2 °F 76% 29.89 in 10.0 mi SSW 3.5 mph - N/A   Clear
7:55 AM 50.0 °F - 41.0 °F 71% 29.89 in 10.0 mi SSW 5.8 mph - N/A   Clear
8:15 AM 51.8 °F - 41.0 °F 67% 29.90 in 10.0 mi SSW 8.1 mph - N/A   Clear
8:35 AM 53.6 °F - 41.0 °F 62% 29.89 in 10.0 mi SSW 11.5 mph - N/A   Clear
8:55 AM 55.4 °F - 39.2 °F 54% 29.89 in 10.0 mi SSW 11.5 mph - N/A   Clear
9:15 AM 59.0 °F - 39.2 °F 48% 29.89 in 10.0 mi SSW 8.1 mph - N/A   Clear
9:35 AM 62.6 °F - 35.6 °F 37% 29.89 in 10.0 mi SW 8.1 mph - N/A   Clear
9:55 AM 64.4 °F - 35.6 °F 34% 29.89 in 10.0 mi SSW 11.5 mph - N/A   Clear
10:15 AM 68.0 °F - 33.8 °F 28% 29.89 in 10.0 mi SSW 8.1 mph 16.1 mph N/A   Clear
10:35 AM 71.6 °F - 28.4 °F 20% 29.88 in 10.0 mi SSW 11.5 mph - N/A   Clear
10:55 AM 73.4 °F - 26.6 °F 18% 29.88 in 10.0 mi SW 12.7 mph 16.1 mph N/A   Clear
11:15 AM 75.2 °F - 24.8 °F 15% 29.87 in 10.0 mi SW 9.2 mph - N/A   Clear
11:35 AM 78.8 °F - 23.0 °F 13% 29.86 in 10.0 mi SW 11.5 mph - N/A   Clear
11:55 AM 78.8 °F - 21.2 °F 12% 29.85 in 10.0 mi WSW 12.7 mph - N/A   Clear
12:15 PM 80.6 °F - 17.6 °F 10% 29.84 in 10.0 mi West 11.5 mph - N/A   Clear
12:55 PM 80.6 °F - 15.8 °F 9% 29.82 in 10.0 mi West 10.4 mph 16.1 mph N/A   Clear
1:15 PM 82.4 °F - 15.8 °F 8% 29.81 in 10.0 mi WSW 11.5 mph - N/A   Clear
1:35 PM 82.4 °F - 17.6 °F 9% 29.80 in 10.0 mi West 9.2 mph - N/A   Clear
1:55 PM 82.4 °F - 15.8 °F 8% 29.80 in 10.0 mi West 9.2 mph - N/A   Clear
2:15 PM 86.0 °F - 14.0 °F 7% 29.79 in 10.0 mi SSW 8.1 mph - N/A   Clear
2:35 PM 86.0 °F - 12.2 °F 6% 29.79 in 10.0 mi WSW 11.5 mph - N/A   Clear
2:55 PM 86.0 °F - 12.2 °F 6% 29.79 in 10.0 mi WSW 11.5 mph - N/A   Clear
3:15 PM 84.2 °F - 12.2 °F 7% 29.79 in 10.0 mi SW 16.1 mph - N/A   Clear
3:35 PM 82.4 °F - 12.2 °F 7% 29.80 in 10.0 mi SW 12.7 mph - N/A   Clear
3:55 PM 82.4 °F - 14.0 °F 8% 29.80 in 7.0 mi SW 8.1 mph - N/A   Clear
4:15 PM 80.6 °F - 14.0 °F 8% 29.79 in 10.0 mi SW 5.8 mph - N/A   Clear
4:35 PM 80.6 °F - 15.8 °F 9% 29.79 in 10.0 mi SW 5.8 mph - N/A   Clear
4:55 PM 80.6 °F - 14.0 °F 8% 29.79 in 10.0 mi SSW 6.9 mph - N/A   Clear
5:15 PM 80.6 °F - 19.4 °F 10% 29.79 in 10.0 mi South 10.4 mph - N/A   Clear
5:35 PM 77.0 °F - 26.6 °F 16% 29.80 in 10.0 mi South 9.2 mph - N/A   Clear
5:55 PM 73.4 °F - 26.6 °F 18% 29.80 in 10.0 mi South 9.2 mph - N/A   Clear
6:15 PM 71.6 °F - 28.4 °F 20% 29.80 in 10.0 mi South 8.1 mph - N/A   Clear
6:35 PM 69.8 °F - 28.4 °F 21% 29.80 in 10.0 mi South 6.9 mph - N/A   Clear
6:55 PM 66.2 °F - 28.4 °F 24% 29.81 in 10.0 mi SSW 3.5 mph - N/A   Clear
7:15 PM 66.2 °F - 30.2 °F 26% 29.81 in 10.0 mi WSW 4.6 mph - N/A   Clear
7:35 PM 64.4 °F - 30.2 °F 28% 29.81 in 10.0 mi SW 5.8 mph - N/A   Clear
7:55 PM 62.6 °F - 30.2 °F 30% 29.81 in 10.0 mi SW 5.8 mph - N/A   Clear
8:15 PM 60.8 °F - 30.2 °F 31% 29.81 in 10.0 mi WSW 4.6 mph - N/A   Clear
8:35 PM 60.8 °F - 30.2 °F 31% 29.81 in 10.0 mi West 4.6 mph - N/A   Clear
8:55 PM 62.6 °F - 30.2 °F 30% 29.82 in 10.0 mi NW 4.6 mph - N/A   Clear
9:15 PM 62.6 °F - 30.2 °F 30% 29.82 in 10.0 mi NW 4.6 mph - N/A   Clear
9:35 PM 60.8 °F - 28.4 °F 29% 29.82 in 10.0 mi Calm Calm - N/A   Clear
9:55 PM 60.8 °F - 30.2 °F 31% 29.82 in 10.0 mi Calm Calm - N/A   Clear
10:15 PM 59.0 °F - 30.2 °F 34% 29.82 in 10.0 mi Calm Calm - N/A   Clear
10:35 PM 55.4 °F - 30.2 °F 38% 29.82 in 10.0 mi Calm Calm - N/A   Clear
10:55 PM 55.4 °F - 30.2 °F 38% 29.82 in 10.0 mi Calm Calm - N/A   Clear
11:15 PM 53.6 °F - 30.2 °F 41% 29.82 in 10.0 mi South 3.5 mph - N/A   Clear
11:35 PM 55.4 °F - 30.2 °F 38% 29.83 in 10.0 mi ESE 4.6 mph - N/A   Clear
11:55 PM 53.6 °F - 30.2 °F 41% 29.82 in 10.0 mi Calm Calm - N/A   Clear